Weather History for New Bern, NC

Change the Weather History Date:

Sunday, February 12, 2012

  Actual Average Record
Temperature  
Mean Temperature 32 °F 46 °F  
Max Temperature 40 °F 57 °F 78 °F (1965)
Min Temperature 24 °F 36 °F 13 °F (1968)
Degree Days  
Heating Degree Days 33 19  
Month to date heating degree days 223 232  
Since 1 July heating degree days 1558 1872  
Cooling Degree Days 0 0  
Month to date cooling degree days 0 0  
Year to date cooling degree days 0 1  
Moisture  
Dew Point 8 °F    
Average Humidity 46    
Maximum Humidity 63    
Minimum Humidity 29    
Precipitation  
Precipitation 0.00 in 0.12 in 1.55 in (1972)
Month to date precipitation 0.76 1.48  
Year to date precipitation 3.19 5.50  
Snow  
Snow 0.00 in - - ()
Month to date snowfall 0.0  
Since 1 July snowfall 0.0  
Snow Depth 0.00 in    
Sea Level Pressure  
Sea Level Pressure 30.14 in    
Wind  
Wind Speed 13 mph (WNW)    
Max Wind Speed 26 mph    
Max Gust Speed 37 mph    
Visibility 10 miles    
Events      
T = Trace of Precipitation, MM = Missing Value Source: NWS Daily Summary

Daily Weather History Graph

Daily Weather History Graph

Search for Another Location

Airport:

Trip Planner

Search our weather history database for the weather conditions in past years. The results will help you decide how hot, cold, wet, or windy it might be!

Date:

Astronomy

Feb. 12, 2012 Rise Set
Actual Time 6:57 AM EST 5:47 PM EST
Civil Twilight 6:31 AM EST 6:13 PM EST
Nautical Twilight 6:01 AM EST 6:43 PM EST
Astronomical Twilight 5:32 AM EST 7:12 PM EST
Moon 11:25 PM EST (2/12) 9:30 AM EST (2/12)
Length of Visible Light 11h 41m
Length of Day
10h 49m
Waning Gibbous, 72% of the Moon is Illuminated
Feb 12
Waning Gibbous
Feb 14
Last Quarter
Feb 21
New
Feb 29
First Quarter
Mar 8
Full

Hourly Weather History & Observations

Time (EST) Temp. Windchill Dew Point Humidity Pressure Visibility Wind Dir Wind Speed Gust Speed Precip Events Conditions
12:54 AM 28.0 °F 15.3 °F 6.1 °F 39% 29.98 in 10.0 mi NW 18.4 mph 29.9 mph N/A   Clear
1:54 AM 27.0 °F 14.3 °F 5.0 °F 39% 30.00 in 10.0 mi NW 17.3 mph 31.1 mph N/A   Clear
2:54 AM 27.0 °F 13.5 °F 3.9 °F 37% 30.01 in 10.0 mi NW 19.6 mph 32.2 mph N/A   Clear
3:54 AM 26.1 °F 12.3 °F 3.0 °F 37% 30.04 in 10.0 mi NW 19.6 mph 32.2 mph N/A   Clear
4:54 AM 25.0 °F 11.3 °F 3.9 °F 41% 30.08 in 10.0 mi NW 18.4 mph 31.1 mph N/A   Clear
5:54 AM 25.0 °F 10.6 °F 3.0 °F 39% 30.11 in 10.0 mi NW 20.7 mph 34.5 mph N/A   Clear
6:54 AM 25.0 °F 12.6 °F 1.9 °F 37% 30.13 in 10.0 mi NW 15.0 mph 26.5 mph N/A   Clear
7:54 AM 26.1 °F 13.6 °F 3.9 °F 39% 30.16 in 10.0 mi NW 16.1 mph 21.9 mph N/A   Clear
8:54 AM 28.0 °F 14.3 °F 3.9 °F 36% 30.19 in 10.0 mi NNW 21.9 mph 29.9 mph N/A   Clear
9:54 AM 30.0 °F 19.5 °F 5.0 °F 35% 30.22 in 10.0 mi NW 13.8 mph 24.2 mph N/A   Clear
10:54 AM 33.1 °F 23.4 °F 7.0 °F 34% 30.23 in 10.0 mi NNW 13.8 mph 19.6 mph N/A   Clear
11:54 AM 35.1 °F 26.9 °F 8.1 °F 33% 30.21 in 10.0 mi NW 11.5 mph 24.2 mph N/A   Clear
12:54 PM 37.0 °F 29.3 °F 9.0 °F 31% 30.17 in 10.0 mi NW 11.5 mph 18.4 mph N/A   Clear
1:54 PM 37.9 °F 28.9 °F 9.0 °F 30% 30.14 in 10.0 mi WNW 16.1 mph 23.0 mph N/A   Clear
2:54 PM 39.9 °F 33.4 °F 10.9 °F 31% 30.12 in 10.0 mi NNW 10.4 mph 21.9 mph N/A   Clear
3:54 PM 39.9 °F 31.8 °F 10.0 °F 29% 30.13 in 10.0 mi WNW 15.0 mph 21.9 mph N/A   Clear
4:54 PM 39.9 °F 33.9 °F 10.9 °F 31% 30.14 in 10.0 mi WNW 9.2 mph 18.4 mph N/A   Clear
5:54 PM 37.9 °F 33.5 °F 10.9 °F 33% 30.15 in 10.0 mi West 5.8 mph - N/A   Clear
6:54 PM 35.1 °F 31.0 °F 12.9 °F 40% 30.18 in 10.0 mi West 4.6 mph - N/A   Clear
7:54 PM 30.0 °F 25.2 °F 19.9 °F 66% 30.19 in 10.0 mi SW 4.6 mph - N/A   Clear
8:54 PM 30.9 °F 26.2 °F 16.0 °F 54% 30.21 in 10.0 mi SW 4.6 mph - N/A   Clear
9:54 PM 30.9 °F 26.2 °F 12.0 °F 46% 30.22 in 10.0 mi SW 4.6 mph - N/A   Clear
10:54 PM 30.0 °F 25.2 °F 12.9 °F 49% 30.22 in 10.0 mi SW 4.6 mph - N/A   Clear
11:54 PM 33.1 °F 26.9 °F 14.0 °F 46% 30.23 in 10.0 mi West 6.9 mph - N/A   Clear